Terminal Aerodrome Forecast
Issued by NWS

Home | Current Version | Previous Version | Text Only | Print | Product List | Glossary On
Versions: 1 2 3 4 5 6 7 8 9 10 11 12 13 14
000
FTUS45 KRIW 041722
TAFCOD
TAF
KCOD 041722Z 0418/0518 VRB06KT P6SM -SHRA OVC080
     FM042000 01012G20KT P6SM -SHRA VCTS SCT050CB OVC070
     FM050200 33007KT P6SM SCT100
     FM050800 22006KT P6SM SCT080 BKN120
      AMD LTD TO CLD VIS AND WIND=

USA.gov is the U.S. government's official web portal to all federal, state and local government web resources and services.